Location: Observatorio Las Palmas
(29.0667°N, 110.9333°W)
Time: 01:19:41
(UTC-07:00)

Hubble Space Telescope - Visible Passes

Search period start: 26 May 2018 00:00
Search period end: 05 June 2018 00:00
Orbit: 537 x 541 km, 28.5° (Epoch: 25 May)

Date Brightness Start Highest point End Pass type
(mag) Time Alt. Az. Time Alt. Az. Time Alt. Az.
26 May 1.8 04:34:19 14° SW 04:37:18 33° SSE 04:41:03 10° E visible
27 May 1.5 04:24:26 19° SW 04:26:56 40° SSE 04:30:49 10° E visible
28 May 1.2 04:14:31 25° SW 04:16:34 48° SSE 04:20:34 10° E visible
29 May 0.9 04:04:35 32° SW 04:06:13 56° SSE 04:10:17 10° E visible
30 May 0.8 03:54:38 41° SW 03:55:53 65° S 03:59:59 10° E visible
31 May 0.7 03:44:43 53° SW 03:45:33 72° S 03:49:40 10° E visible
01 Jun 0.6 03:34:49 69° SW 03:35:13 78° S 03:39:22 10° E visible
02 Jun 0.6 03:24:59 81° SSE 03:24:59 81° SSE 03:29:03 10° E visible
03 Jun 1.0 03:15:13 63° ESE 03:15:13 63° ESE 03:18:44 10° E visible
03 Jun 0.9 04:51:41 10° W 04:55:45 60° SSW 04:59:50 10° ESE visible
04 Jun 1.6 03:05:33 43° E 03:05:33 43° E 03:08:25 10° E visible
04 Jun 1.0 04:41:23 10° W 04:45:24 51° SSW 04:49:26 10° ESE visible
